{"data":{"norad_id":65611,"epoch":"2026-09-20T22:00:03.000096Z","epoch_age_seconds":75897,"freshness":"FRESH","line1":"1 65611U 25207V   26263.91670139 -.00001289  00000+0 -37604-4 0  9995","line2":"2 65611  97.2853 326.4185 0001568  91.0015 144.5218 15.33436344  5646","mean_motion":15.33436344,"eccentricity":0.0001568,"inclination_deg":97.2853,"raan_deg":326.4185,"arg_perigee_deg":91.0015,"mean_anomaly_deg":144.5218,"bstar":-3.7604e-5,"rev_number":564,"period_min":93.906734742163,"perigee_km":464.49583567564,"apogee_km":466.6420218549,"semimajor_km":6843.7059287653,"source":"CELESTRAK","updated_at":"2026-09-21T09:00:35.656964Z"}}